����,���ϕ���(m/s),���ϕ���,�ő�u�ԕ���(m/s),�ő啗��������,�C��(��),���x(%),10���Ԉړ��ώZ�J��(mm),1���Ԉړ��ώZ�J��(mm),���J��(mm),�݌v�J��(mm)
2024-05-13T00:00:00+09:00,1.2,�쐼,3.2,��쓌,17.7,100,1,4,9,9
2024-05-13T00:01:00+09:00,1,�쐼,3.2,��쓌,17.7,100,1,4,0,9
2024-05-13T00:02:00+09:00,0.9,�쐼,3.2,��쓌,17.7,100,1,4.5,0.5,9.5
2024-05-13T00:03:00+09:00,0.8,�쐼,3.2,��쓌,17.7,100,1,4.5,0.5,9.5
2024-05-13T00:04:00+09:00,0.7,���쐼,2.6,��쐼,17.6,100,1,4.5,0.5,9.5
2024-05-13T00:05:00+09:00,0.6,��,1.9,���쐼,17.6,100,1,4.5,0.5,9.5
2024-05-13T00:06:00+09:00,0.6,��,1.9,���쐼,17.6,100,1,4.5,0.5,9.5
2024-05-13T00:07:00+09:00,0.5,��,1.5,��,17.6,100,1,5,1,10
2024-05-13T00:08:00+09:00,0.5,���k��,1.6,�k��,17.6,100,1,5,1,10
2024-05-13T00:09:00+09:00,0.5,���k��,1.8,�k�k��,17.6,100,1,5,1,10
2024-05-13T00:10:00+09:00,0.7,���k��,1.8,�k�k��,17.5,100,1,4.5,1,10
2024-05-13T00:11:00+09:00,0.7,���k��,1.8,�k�k��,17.6,100,1,4.5,1,10
2024-05-13T00:12:00+09:00,0.7,�k��,1.8,�k�k��,17.5,100,0.5,4.5,1,10
2024-05-13T00:13:00+09:00,0.8,�k��,1.8,�k�k��,17.6,100,1,5,1.5,10.5
2024-05-13T00:14:00+09:00,0.7,�k��,1.8,�k�k��,17.6,100,1,5,1.5,10.5
2024-05-13T00:15:00+09:00,0.7,�k��,1.8,�k�k��,17.5,100,1,5,1.5,10.5
2024-05-13T00:16:00+09:00,0.6,�k��,1.8,�k�k��,17.6,100,1,5,1.5,10.5
2024-05-13T00:17:00+09:00,0.7,�k��,1.8,�k�k��,17.5,100,0.5,5,1.5,10.5
2024-05-13T00:18:00+09:00,0.8,�k��,2.3,�k��,17.5,100,0.5,5,1.5,10.5
2024-05-13T00:19:00+09:00,0.8,�k��,2.3,�k��,17.5,100,0.5,5,1.5,10.5
2024-05-13T00:20:00+09:00,0.8,�k��,2.3,�k��,17.5,100,1,5.5,2,11
2024-05-13T00:21:00+09:00,0.7,�k��,2.3,�k��,17.5,100,1,5,2,11
2024-05-13T00:22:00+09:00,0.8,�k��,2.3,�k��,17.5,100,1,5,2,11
2024-05-13T00:23:00+09:00,0.8,�k��,2.3,�k��,17.6,100,0.5,5,2,11
2024-05-13T00:24:00+09:00,0.7,�k��,2.3,�k��,17.6,100,0.5,5,2,11
2024-05-13T00:25:00+09:00,0.7,�k��,2.3,�k��,17.5,100,0.5,5,2,11
2024-05-13T00:26:00+09:00,0.7,�k�k��,2.3,�k��,17.5,100,0.5,5,2,11
2024-05-13T00:27:00+09:00,0.7,�k�k��,2.3,�k��,17.6,100,0.5,5,2,11
2024-05-13T00:28:00+09:00,0.6,�k,1.8,���k��,17.6,100,1,5.5,2.5,11.5
2024-05-13T00:29:00+09:00,0.5,�k,1.2,�k��,17.6,100,1,5.5,2.5,11.5
2024-05-13T00:30:00+09:00,0.6,�k,1.7,�k��,17.5,100,0.5,5.5,2.5,11.5
2024-05-13T00:31:00+09:00,0.6,�k,1.7,�k��,17.5,100,0.5,5,2.5,11.5
2024-05-13T00:32:00+09:00,0.6,�k,1.7,�k��,17.5,100,0.5,5,2.5,11.5
2024-05-13T00:33:00+09:00,0.7,�k,2,�k�k��,17.5,100,0.5,5,2.5,11.5
2024-05-13T00:34:00+09:00,0.9,�k,2.5,�k�k��,17.5,100,0.5,5,2.5,11.5
2024-05-13T00:35:00+09:00,1,�k,2.5,�k�k��,17.5,100,1,5.5,3,12
2024-05-13T00:36:00+09:00,1,�k,2.5,�k�k��,17.5,100,1,5.5,3,12
2024-05-13T00:37:00+09:00,1,�k,2.5,�k�k��,17.5,100,1,5.5,3,12
2024-05-13T00:38:00+09:00,1,�k�k��,2.5,�k�k��,17.5,100,0.5,5.5,3,12
2024-05-13T00:39:00+09:00,1,�k�k��,2.5,�k�k��,17.5,100,0.5,5,3,12
2024-05-13T00:40:00+09:00,1,�k�k��,2.5,�k�k��,17.5,100,0.5,5,3,12
2024-05-13T00:41:00+09:00,1,�k�k��,2.5,�k�k��,17.5,100,0.5,5,3,12
2024-05-13T00:42:00+09:00,0.9,�k�k��,2.5,�k�k��,17.5,100,0.5,5,3,12
2024-05-13T00:43:00+09:00,0.9,�k�k��,2.5,�k�k��,17.5,100,0.5,5,3,12
2024-05-13T00:44:00+09:00,0.8,�k�k��,1.9,�k��,17.5,100,0.5,5,3,12
2024-05-13T00:45:00+09:00,0.8,�k��,1.9,�k��,17.5,100,0,4.5,3,12
2024-05-13T00:46:00+09:00,0.8,�k��,1.9,�k��,17.5,100,0,4.5,3,12
2024-05-13T00:47:00+09:00,0.8,�k�k��,1.9,�k��,17.5,100,0,4.5,3,12
2024-05-13T00:48:00+09:00,0.8,�k�k��,1.7,�k,17.5,100,0,4,3,12
2024-05-13T00:49:00+09:00,0.7,�k�k��,1.7,�k,17.5,100,0,4,3,12
2024-05-13T00:50:00+09:00,0.7,�k�k��,1.6,�k�k��,17.4,100,0,4,3,12
2024-05-13T00:51:00+09:00,0.7,�k�k��,1.6,�k�k��,17.5,100,0,4,3,12
2024-05-13T00:52:00+09:00,0.7,�k�k��,1.6,�k�k��,17.5,100,0.5,4,3.5,12.5
2024-05-13T00:53:00+09:00,0.6,�k�k��,1.6,�k�k��,17.5,100,0.5,4,3.5,12.5
2024-05-13T00:54:00+09:00,0.5,�k�k��,1.6,�k�k��,17.5,100,0.5,4,3.5,12.5
2024-05-13T00:55:00+09:00,0.5,�k�k��,1.6,�k�k��,17.5,100,0.5,4,3.5,12.5
2024-05-13T00:56:00+09:00,0.5,�k��,1.6,��,17.5,100,0.5,4,3.5,12.5
2024-05-13T00:57:00+09:00,0.5,�k��,1.6,��,17.4,100,0.5,3.5,3.5,12.5
2024-05-13T00:58:00+09:00,0.4,�k��,1.6,��,17.4,100,0.5,3.5,3.5,12.5
2024-05-13T00:59:00+09:00,0.5,�k��,1.6,��,17.4,100,0.5,3.5,3.5,12.5
2024-05-13T01:00:00+09:00,0.5,�k��,1.6,��,17.4,100,0.5,3.5,3.5,12.5
2024-05-13T01:01:00+09:00,0.5,�k��,1.6,��,17.4,100,0.5,3.5,3.5,12.5
2024-05-13T01:02:00+09:00,0.5,�k��,1.6,��,17.4,100,0,3,3.5,12.5
2024-05-13T01:03:00+09:00,0.5,�k��,1.6,��,17.5,100,0,3,3.5,12.5
2024-05-13T01:04:00+09:00,0.5,���k��,1.6,��,17.5,100,0,3,3.5,12.5
2024-05-13T01:05:00+09:00,0.5,���k��,1.6,��,17.5,100,0,3,3.5,12.5
2024-05-13T01:06:00+09:00,0.5,�k��,2.1,���k��,17.5,100,0,3,3.5,12.5
2024-05-13T01:07:00+09:00,0.6,�k��,2.1,���k��,17.5,100,0,2.5,3.5,12.5
2024-05-13T01:08:00+09:00,0.7,�k��,2.1,���k��,17.4,100,0,2.5,3.5,12.5
2024-05-13T01:09:00+09:00,0.7,���k��,2.1,���k��,17.5,100,0.5,3,4,13
2024-05-13T01:10:00+09:00,0.6,���k��,2.1,���k��,17.4,100,0.5,3,4,13
2024-05-13T01:11:00+09:00,0.6,�k��,2.1,���k��,17.4,100,0.5,3,4,13
2024-05-13T01:12:00+09:00,0.6,�k��,2.1,���k��,17.4,100,0.5,3,4,13
2024-05-13T01:13:00+09:00,0.6,�k��,2.1,���k��,17.5,100,1,3,4.5,13.5
2024-05-13T01:14:00+09:00,0.7,�k�k��,2.1,���k��,17.5,100,1,3,4.5,13.5
2024-05-13T01:15:00+09:00,0.8,�k�k��,2.1,���k��,17.5,100,1.5,3.5,5,14
2024-05-13T01:16:00+09:00,0.8,�k�k��,2,�k,17.5,100,1.5,3.5,5,14
2024-05-13T01:17:00+09:00,0.8,�k,2,�k,17.4,100,1.5,3.5,5,14
2024-05-13T01:18:00+09:00,0.9,�k,2,�k,17.5,100,2,4,5.5,14.5
2024-05-13T01:19:00+09:00,0.8,�k,2,�k,17.5,100,1.5,4,5.5,14.5
2024-05-13T01:20:00+09:00,0.9,�k,2.1,���k��,17.5,100,1.5,3.5,5.5,14.5
2024-05-13T01:21:00+09:00,1,�k�k��,2.1,���k��,17.5,100,1.5,3.5,5.5,14.5
2024-05-13T01:22:00+09:00,1,�k�k��,2.1,���k��,17.5,100,1.5,3.5,5.5,14.5
2024-05-13T01:23:00+09:00,1,�k��,2.1,���k��,17.5,100,1.5,4,6,15
2024-05-13T01:24:00+09:00,1,�k��,2.1,���k��,17.5,100,1.5,4,6,15
2024-05-13T01:25:00+09:00,1,�k��,2.1,���k��,17.5,100,1,4,6,15
2024-05-13T01:26:00+09:00,0.8,�k��,2.1,���k��,17.6,100,1,4,6,15
2024-05-13T01:27:00+09:00,0.7,�k��,2.1,���k��,17.6,100,1,4,6,15
2024-05-13T01:28:00+09:00,0.7,�k��,2.3,���k��,17.6,100,0.5,3.5,6,15
2024-05-13T01:29:00+09:00,0.9,�k��,2.6,�k��,17.6,100,0.5,3.5,6,15
2024-05-13T01:30:00+09:00,1,�k��,2.6,�k��,17.5,100,0.5,3.5,6,15
2024-05-13T01:31:00+09:00,0.9,�k��,2.6,�k��,17.6,100,0.5,3.5,6,15
2024-05-13T01:32:00+09:00,0.9,�k�k��,2.6,�k��,17.6,100,1,4,6.5,15.5
2024-05-13T01:33:00+09:00,0.8,�k�k��,2.6,�k��,17.6,100,0.5,4,6.5,15.5
2024-05-13T01:34:00+09:00,0.8,�k��,2.6,�k��,17.6,100,0.5,4,6.5,15.5
2024-05-13T01:35:00+09:00,0.9,�k��,2.6,�k��,17.6,100,0.5,3.5,6.5,15.5
2024-05-13T01:36:00+09:00,0.9,�k��,2.6,�k��,17.6,100,0.5,3.5,6.5,15.5
2024-05-13T01:37:00+09:00,0.9,�k��,2.6,�k��,17.7,100,0.5,3.5,6.5,15.5
2024-05-13T01:38:00+09:00,0.8,�k��,2.6,�k��,17.6,100,1,4,7,16
2024-05-13T01:39:00+09:00,0.7,�k��,1.9,���k��,17.6,100,1,4,7,16
2024-05-13T01:40:00+09:00,0.5,�k��,1.8,�k�k��,17.7,100,1,4,7,16
2024-05-13T01:41:00+09:00,0.5,�k��,1.5,�k�k��,17.7,100,1,4,7,16
2024-05-13T01:42:00+09:00,0.4,�k��,1.5,�k�k��,17.7,100,0.5,4,7,16
2024-05-13T01:43:00+09:00,0.4,�k��,1.5,�k�k��,17.7,100,0.5,4,7,16
2024-05-13T01:44:00+09:00,0.5,�k��,1.5,�k�k��,17.7,100,0.5,4,7,16
2024-05-13T01:45:00+09:00,0.4,�k��,1.5,�k�k��,17.7,100,0.5,4,7,16
2024-05-13T01:46:00+09:00,0.4,�k�k��,1.6,�k�k��,17.6,100,1,4.5,7.5,16.5
2024-05-13T01:47:00+09:00,0.4,�k�k��,1.6,�k�k��,17.6,100,1,4.5,7.5,16.5
2024-05-13T01:48:00+09:00,0.5,�k�k��,1.9,�k�k��,17.7,100,0.5,4.5,7.5,16.5
2024-05-13T01:49:00+09:00,0.6,�k�k��,1.9,�k�k��,17.6,100,0.5,4.5,7.5,16.5
2024-05-13T01:50:00+09:00,0.7,�k�k��,2,�k�k��,17.6,100,0.5,4.5,7.5,16.5
2024-05-13T01:51:00+09:00,0.7,�k�k��,2,�k�k��,17.6,100,0.5,4.5,7.5,16.5
2024-05-13T01:52:00+09:00,0.7,�k�k��,2,�k�k��,17.6,100,1,4.5,8,17
2024-05-13T01:53:00+09:00,0.8,�k�k��,2,�k�k��,17.6,100,1,4.5,8,17
2024-05-13T01:54:00+09:00,0.7,�k�k��,2,�k�k��,17.6,100,1,4.5,8,17
2024-05-13T01:55:00+09:00,0.8,�k�k��,2,�k�k��,17.5,100,1,4.5,8,17
2024-05-13T01:56:00+09:00,0.8,�k�k��,2,�k�k��,17.5,100,0.5,4.5,8,17
2024-05-13T01:57:00+09:00,0.8,�k�k��,2,�k�k��,17.5,100,1,5,8.5,17.5
2024-05-13T01:58:00+09:00,0.8,�k�k��,2,�k�k��,17.5,100,1,5,8.5,17.5
2024-05-13T01:59:00+09:00,0.7,�k�k��,2,�k�k��,17.5,100,1,5,8.5,17.5
2024-05-13T02:00:00+09:00,0.7,�k�k��,1.8,�k�k��,17.5,100,1,5,8.5,17.5
2024-05-13T02:01:00+09:00,0.6,�k�k��,1.8,�k�k��,17.5,100,1,5,8.5,17.5
2024-05-13T02:02:00+09:00,0.6,�k�k��,1.8,�k�k��,17.5,100,0.5,5,8.5,17.5
2024-05-13T02:03:00+09:00,0.6,�k,1.8,�k�k��,17.5,100,1,5.5,9,18
2024-05-13T02:04:00+09:00,0.7,�k,1.8,�k�k��,17.5,100,1,5.5,9,18
2024-05-13T02:05:00+09:00,0.6,�k,1.4,�k�k��,17.5,100,1,5.5,9,18
2024-05-13T02:06:00+09:00,0.6,�k,1.4,�k�k��,17.5,100,1,5.5,9,18
2024-05-13T02:07:00+09:00,0.6,�k,1.4,�k�k��,17.6,100,0.5,5.5,9,18
2024-05-13T02:08:00+09:00,0.6,�k�k��,1.4,�k�k��,17.6,100,0.5,5.5,9,18
2024-05-13T02:09:00+09:00,0.6,�k,1.4,�k�k��,17.6,100,0.5,5,9,18
2024-05-13T02:10:00+09:00,0.6,�k,1.4,�k�k��,17.6,100,0.5,5,9,18
2024-05-13T02:11:00+09:00,0.6,�k,1.4,�k�k��,17.6,100,0.5,5,9,18
2024-05-13T02:12:00+09:00,0.5,�k,1.4,�k�k��,17.6,100,1,5.5,9.5,18.5
2024-05-13T02:13:00+09:00,0.5,�k�k��,1.1,�k,17.5,100,0.5,5,9.5,18.5
2024-05-13T02:14:00+09:00,0.4,�k�k��,1,�k�k��,17.5,100,0.5,5,9.5,18.5
2024-05-13T02:15:00+09:00,0.3,�k�k��,1,�k�k��,17.5,100,0.5,4.5,9.5,18.5
2024-05-13T02:16:00+09:00,0.4,�k�k��,1.2,�k�k��,17.6,100,0.5,4.5,9.5,18.5
2024-05-13T02:17:00+09:00,0.4,�k�k��,1.2,�k�k��,17.5,100,0.5,4.5,9.5,18.5
2024-05-13T02:18:00+09:00,0.4,�k�k��,1.2,�k�k��,17.5,100,0.5,4,9.5,18.5
2024-05-13T02:19:00+09:00,0.4,�k�k��,1.2,�k�k��,17.5,100,0.5,4,9.5,18.5
2024-05-13T02:20:00+09:00,0.4,�k�k��,1.2,�k�k��,17.5,100,0.5,4,9.5,18.5
2024-05-13T02:21:00+09:00,0.4,�k�k��,1.2,�k�k��,17.5,100,0.5,4,9.5,18.5
2024-05-13T02:22:00+09:00,0.4,�k�k��,1.2,�k�k��,17.6,100,0,4,9.5,18.5
2024-05-13T02:23:00+09:00,0.4,�k,1.2,�k�k��,17.6,100,0,3.5,9.5,18.5
2024-05-13T02:24:00+09:00,0.5,�k,1.4,�k�k��,17.6,100,0,3.5,9.5,18.5
2024-05-13T02:25:00+09:00,0.6,�k,2.4,�k�k��,17.6,100,0.5,4,10,19
2024-05-13T02:26:00+09:00,0.7,�k,2.4,�k�k��,17.6,100,0.5,4,10,19
2024-05-13T02:27:00+09:00,0.7,�k,2.4,�k�k��,17.6,100,0.5,4,10,19
2024-05-13T02:28:00+09:00,0.9,�k,2.7,�k��,17.6,100,0.5,4,10,19
2024-05-13T02:29:00+09:00,1.1,�k�k��,2.7,�k��,17.5,100,0.5,4,10,19
2024-05-13T02:30:00+09:00,1.3,�k�k��,2.7,�k��,17.5,100,0.5,4,10,19
2024-05-13T02:31:00+09:00,1.4,�k�k��,2.7,�k��,17.5,100,0.5,4,10,19
2024-05-13T02:32:00+09:00,1.6,�k�k��,2.7,�k��,17.5,100,0.5,3.5,10,19
2024-05-13T02:33:00+09:00,1.7,�k�k��,2.7,�k��,17.5,100,0.5,3.5,10,19
2024-05-13T02:34:00+09:00,1.8,�k�k��,2.7,�k��,17.5,100,0.5,3.5,10,19
2024-05-13T02:35:00+09:00,1.8,�k�k��,2.7,�k��,17.5,100,0,3.5,10,19
2024-05-13T02:36:00+09:00,1.8,�k�k��,2.7,�k��,17.5,100,0,3.5,10,19
2024-05-13T02:37:00+09:00,1.8,�k�k��,2.7,�k��,17.5,100,0.5,4,10.5,19.5
2024-05-13T02:38:00+09:00,1.8,�k�k��,2.7,�k��,17.5,100,0.5,3.5,10.5,19.5
2024-05-13T02:39:00+09:00,1.8,�k�k��,2.6,�k�k��,17.5,100,0.5,3.5,10.5,19.5
2024-05-13T02:40:00+09:00,1.7,�k�k��,2.6,�k�k��,17.5,100,0.5,3.5,10.5,19.5
2024-05-13T02:41:00+09:00,1.7,�k�k��,2.6,�k�k��,17.5,100,0.5,3.5,10.5,19.5
2024-05-13T02:42:00+09:00,1.6,�k�k��,2.3,�k��,17.5,100,0.5,3.5,10.5,19.5
2024-05-13T02:43:00+09:00,1.5,�k�k��,2.3,�k��,17.5,100,0.5,3.5,10.5,19.5
2024-05-13T02:44:00+09:00,1.3,�k�k��,2.3,�k��,17.5,100,0.5,3.5,10.5,19.5
2024-05-13T02:45:00+09:00,1.2,�k�k��,2.3,�k��,17.6,100,0.5,3.5,10.5,19.5
2024-05-13T02:46:00+09:00,1.1,�k�k��,2.3,�k��,17.5,100,0.5,3,10.5,19.5
2024-05-13T02:47:00+09:00,1.1,�k�k��,2.3,�k��,17.5,100,0,3,10.5,19.5
2024-05-13T02:48:00+09:00,1,�k�k��,2.3,�k��,17.5,100,0,3,10.5,19.5
2024-05-13T02:49:00+09:00,1,�k�k��,2,�k�k��,17.5,100,0,3,10.5,19.5
2024-05-13T02:50:00+09:00,1,�k�k��,2,�k�k��,17.5,100,0,3,10.5,19.5
2024-05-13T02:51:00+09:00,0.9,�k�k��,2,�k�k��,17.5,100,0,3,10.5,19.5
2024-05-13T02:52:00+09:00,0.9,�k�k��,2,�k�k��,17.5,100,0,2.5,10.5,19.5
2024-05-13T02:53:00+09:00,0.9,�k�k��,2,�k�k��,17.5,100,0.5,3,11,20
2024-05-13T02:54:00+09:00,1,�k�k��,2,�k�k��,17.5,100,0.5,3,11,20
2024-05-13T02:55:00+09:00,1.2,�k�k��,2.3,�k��,17.5,100,0.5,3,11,20
2024-05-13T02:56:00+09:00,1.2,�k�k��,2.3,�k��,17.5,100,0.5,3,11,20
2024-05-13T02:57:00+09:00,1.2,�k�k��,2.3,�k��,17.5,100,0.5,2.5,11,20
2024-05-13T02:58:00+09:00,1.3,�k�k��,2.3,�k��,17.5,100,0.5,2.5,11,20
2024-05-13T02:59:00+09:00,1.3,�k�k��,2.3,�k��,17.5,100,0.5,2.5,11,20
2024-05-13T03:00:00+09:00,1.3,�k�k��,2.3,�k��,17.5,100,0.5,2.5,11,20
2024-05-13T03:01:00+09:00,1.4,�k�k��,2.3,�k��,17.5,100,0.5,2.5,11,20
2024-05-13T03:02:00+09:00,1.5,�k�k��,2.4,�k�k��,17.5,100,0.5,2.5,11,20
2024-05-13T03:03:00+09:00,1.6,�k�k��,2.4,�k�k��,17.5,100,0,2,11,20
2024-05-13T03:04:00+09:00,1.6,�k�k��,2.4,�k�k��,17.5,100,0,2,11,20
2024-05-13T03:05:00+09:00,1.6,�k�k��,2.4,�k�k��,17.5,100,0,2,11,20
2024-05-13T03:06:00+09:00,1.5,�k�k��,2.4,�k�k��,17.6,100,0,2,11,20
2024-05-13T03:07:00+09:00,1.5,�k�k��,2.4,�k�k��,17.6,100,0,2,11,20
2024-05-13T03:08:00+09:00,1.6,�k��,3.3,���k��,17.6,100,0,2,11,20
2024-05-13T03:09:00+09:00,1.6,�k��,3.3,���k��,17.6,100,0,2,11,20
2024-05-13T03:10:00+09:00,1.6,�k��,3.3,���k��,17.6,100,0.5,2.5,11.5,20.5
2024-05-13T03:11:00+09:00,1.7,�k��,3.3,���k��,17.5,100,0.5,2.5,11.5,20.5
2024-05-13T03:12:00+09:00,1.7,�k��,3.3,���k��,17.5,100,0.5,2,11.5,20.5
2024-05-13T03:13:00+09:00,1.7,�k��,3.3,���k��,17.5,100,0.5,2,11.5,20.5
2024-05-13T03:14:00+09:00,1.7,�k��,3.3,���k��,17.5,100,0.5,2,11.5,20.5
2024-05-13T03:15:00+09:00,1.8,�k��,3.3,���k��,17.5,100,0.5,2,11.5,20.5
2024-05-13T03:16:00+09:00,1.9,�k��,3.3,���k��,17.5,100,0.5,2,11.5,20.5
2024-05-13T03:17:00+09:00,2,�k��,3.3,���k��,17.5,100,0.5,2,11.5,20.5
2024-05-13T03:18:00+09:00,2.1,�k��,3.5,�k��,17.5,100,0.5,2,11.5,20.5
2024-05-13T03:19:00+09:00,2.2,�k��,3.6,�k��,17.5,100,0.5,2,11.5,20.5
2024-05-13T03:20:00+09:00,2.2,�k��,3.6,�k��,17.5,100,0,2,11.5,20.5
2024-05-13T03:21:00+09:00,2.3,�k��,3.6,�k��,17.5,100,0,2,11.5,20.5
2024-05-13T03:22:00+09:00,2.4,�k��,4.1,���k��,17.5,100,0,2,11.5,20.5
2024-05-13T03:23:00+09:00,2.5,�k��,4.1,���k��,17.5,100,0.5,2.5,12,21
2024-05-13T03:24:00+09:00,2.5,�k��,4.1,���k��,17.5,100,0.5,2.5,12,21
2024-05-13T03:25:00+09:00,2.5,�k��,4.2,�k��,17.5,100,0.5,2,12,21
2024-05-13T03:26:00+09:00,2.6,�k��,4.2,�k��,17.5,100,0.5,2,12,21
2024-05-13T03:27:00+09:00,2.6,�k��,4.2,�k��,17.5,100,0.5,2,12,21
2024-05-13T03:28:00+09:00,2.7,�k��,4.2,�k��,17.5,100,0.5,2,12,21
2024-05-13T03:29:00+09:00,2.7,�k��,4.2,�k��,17.5,100,0.5,2,12,21
2024-05-13T03:30:00+09:00,2.7,�k��,4.2,�k��,17.5,100,0.5,2,12,21
2024-05-13T03:31:00+09:00,2.7,�k��,4.2,�k��,17.5,100,0.5,2,12,21
2024-05-13T03:32:00+09:00,2.7,�k��,4.2,�k��,17.5,100,0.5,2,12,21
2024-05-13T03:33:00+09:00,2.8,�k��,4.2,�k��,17.5,100,0,2,12,21
2024-05-13T03:34:00+09:00,2.8,�k��,4.2,�k��,17.5,100,0,2,12,21
2024-05-13T03:35:00+09:00,2.9,�k�k��,4,�k�k��,17.5,100,0,2,12,21
2024-05-13T03:36:00+09:00,2.9,�k�k��,4,�k�k��,17.4,100,0,2,12,21
2024-05-13T03:37:00+09:00,2.8,�k�k��,3.9,�k�k��,17.4,100,0.5,2,12.5,21.5
2024-05-13T03:38:00+09:00,2.8,�k�k��,3.9,�k�k��,17.4,100,0.5,2,12.5,21.5
2024-05-13T03:39:00+09:00,2.7,�k�k��,3.9,�k�k��,17.4,100,0.5,2,12.5,21.5
2024-05-13T03:40:00+09:00,2.7,�k�k��,3.9,�k�k��,17.5,100,0.5,2,12.5,21.5
2024-05-13T03:41:00+09:00,2.7,�k�k��,3.9,�k�k��,17.5,100,0.5,2,12.5,21.5
2024-05-13T03:42:00+09:00,2.6,�k�k��,3.9,�k�k��,17.5,100,0.5,2,12.5,21.5
2024-05-13T03:43:00+09:00,2.4,�k�k��,3.9,�k�k��,17.5,100,0.5,2,12.5,21.5
2024-05-13T03:44:00+09:00,2.3,�k�k��,3.9,�k�k��,17.5,100,0.5,2,12.5,21.5
2024-05-13T03:45:00+09:00,2.1,�k�k��,3.8,�k��,17.5,100,0.5,2,12.5,21.5
2024-05-13T03:46:00+09:00,1.9,�k�k��,3.7,�k�k��,17.6,100,0.5,2,12.5,21.5
2024-05-13T03:47:00+09:00,1.7,�k�k��,3.7,�k�k��,17.5,100,0,2,12.5,21.5
2024-05-13T03:48:00+09:00,1.6,�k�k��,3.7,�k�k��,17.6,100,0.5,2.5,13,22
2024-05-13T03:49:00+09:00,1.4,�k�k��,3.5,�k,17.5,100,0.5,2.5,13,22
2024-05-13T03:50:00+09:00,1.2,�k,3.5,�k,17.6,100,0.5,2.5,13,22
2024-05-13T03:51:00+09:00,1.1,�k,3.5,�k,17.6,100,0.5,2.5,13,22
2024-05-13T03:52:00+09:00,1.1,�k,2.7,�k��,17.6,100,0.5,2.5,13,22
2024-05-13T03:53:00+09:00,1.1,�k�k��,2.7,�k��,17.5,100,0.5,2,13,22
2024-05-13T03:54:00+09:00,1.2,�k�k��,2.7,�k��,17.6,100,0.5,2,13,22
2024-05-13T03:55:00+09:00,1.3,�k�k��,3.2,�k��,17.6,100,0.5,2,13,22
2024-05-13T03:56:00+09:00,1.5,�k�k��,3.2,�k��,17.6,100,0.5,2,13,22
2024-05-13T03:57:00+09:00,1.5,�k�k��,3.2,�k��,17.6,100,0.5,2,13,22
2024-05-13T03:58:00+09:00,1.6,�k�k��,3.2,�k��,17.6,100,0.5,2.5,13.5,22.5
2024-05-13T03:59:00+09:00,1.7,�k�k��,3.3,�k�k��,17.6,100,0.5,2.5,13.5,22.5
2024-05-13T04:00:00+09:00,1.9,�k�k��,4.1,�k�k��,17.5,100,0.5,2.5,13.5,22.5
2024-05-13T04:01:00+09:00,2.1,�k�k��,5.9,�k�k��,17.5,100,0.5,2.5,13.5,22.5
2024-05-13T04:02:00+09:00,2.2,�k�k��,5.9,�k�k��,17.5,100,0.5,2.5,13.5,22.5
2024-05-13T04:03:00+09:00,2.4,�k�k��,6.2,�k�k��,17.5,100,1,3,14,23
2024-05-13T04:04:00+09:00,2.6,�k�k��,6.2,�k�k��,17.5,100,1,3,14,23
2024-05-13T04:05:00+09:00,2.6,�k�k��,6.2,�k�k��,17.5,100,1,3,14,23
2024-05-13T04:06:00+09:00,2.6,�k�k��,6.2,�k�k��,17.5,100,1,3,14,23
2024-05-13T04:07:00+09:00,2.6,�k�k��,6.2,�k�k��,17.5,100,1.5,3.5,14.5,23.5
2024-05-13T04:08:00+09:00,2.7,�k�k��,6.2,�k�k��,17.5,100,1,3.5,14.5,23.5
2024-05-13T04:09:00+09:00,2.8,�k�k��,6.2,�k�k��,17.5,100,1,3.5,14.5,23.5
2024-05-13T04:10:00+09:00,2.7,�k�k��,6.2,�k�k��,17.5,100,1,3,14.5,23.5
2024-05-13T04:11:00+09:00,2.8,�k�k��,6.2,�k�k��,17.5,100,1,3,14.5,23.5
2024-05-13T04:12:00+09:00,2.9,�k�k��,6.2,�k�k��,17.5,100,1.5,3.5,15,24
2024-05-13T04:13:00+09:00,2.7,�k�k��,5.8,�k�k��,17.4,100,1,3.5,15,24
2024-05-13T04:14:00+09:00,2.5,�k�k��,5.8,�k�k��,17.4,100,1,3.5,15,24
2024-05-13T04:15:00+09:00,2.4,�k�k��,5.8,�k�k��,17.3,100,1,3.5,15,24
2024-05-13T04:16:00+09:00,2.5,�k�k��,5.8,�k�k��,17.2,100,1,3.5,15,24
2024-05-13T04:17:00+09:00,2.4,�k�k��,5.8,�k�k��,16.9,100,0.5,3.5,15,24
2024-05-13T04:18:00+09:00,2.6,�k,7.5,���k��,16.7,100,0.5,3.5,15,24
2024-05-13T04:19:00+09:00,2.7,�k,7.5,���k��,16.6,100,1,4,15.5,24.5
2024-05-13T04:20:00+09:00,2.6,�k�k��,7.5,���k��,16.5,100,1,4,15.5,24.5
2024-05-13T04:21:00+09:00,2.3,�k�k��,7.5,���k��,16.4,100,1,4,15.5,24.5
2024-05-13T04:22:00+09:00,2.3,�k��,7.5,���k��,16.3,100,0.5,4,15.5,24.5
2024-05-13T04:23:00+09:00,2.4,�k��,7.5,���k��,16.2,99.7,0.5,3.5,15.5,24.5
2024-05-13T04:24:00+09:00,2.4,�k��,7.5,���k��,16.2,99.6,0.5,3.5,15.5,24.5
2024-05-13T04:25:00+09:00,2.4,�k��,7.5,���k��,16.2,99.4,0.5,3.5,15.5,24.5
2024-05-13T04:26:00+09:00,2.3,�k��,7.5,���k��,16.1,99.3,0.5,3.5,15.5,24.5
2024-05-13T04:27:00+09:00,2.5,�k�k��,7.5,���k��,15.9,98.5,0.5,3.5,15.5,24.5
2024-05-13T04:28:00+09:00,2.4,�k�k��,6.2,���k��,15.9,98.4,0.5,3.5,15.5,24.5
2024-05-13T04:29:00+09:00,2.4,�k,6.2,���k��,15.9,98.4,0,3.5,15.5,24.5
2024-05-13T04:30:00+09:00,2.3,�k,6.2,���k��,15.8,98.6,0,3.5,15.5,24.5
2024-05-13T04:31:00+09:00,2.3,�k,6.2,���k��,15.7,98.7,0,3.5,15.5,24.5
2024-05-13T04:32:00+09:00,2.2,�k,6.2,���k��,15.8,98.9,0,3.5,15.5,24.5
2024-05-13T04:33:00+09:00,2.1,�k�k��,5.8,���쐼,15.8,98.7,0,3.5,15.5,24.5
2024-05-13T04:34:00+09:00,2.1,�k�k��,5.4,�k�k��,15.8,98.4,0,3.5,15.5,24.5
2024-05-13T04:35:00+09:00,2.1,�k�k��,5.4,�k�k��,15.7,98.1,0,3.5,15.5,24.5
2024-05-13T04:36:00+09:00,2.1,�k�k��,5.4,�k�k��,15.6,97.7,0,3.5,15.5,24.5
2024-05-13T04:37:00+09:00,1.9,�k�k��,5.3,���k��,15.5,98.3,0,3,15.5,24.5
2024-05-13T04:38:00+09:00,1.8,�k,5.3,���k��,15.4,98.3,0,3,15.5,24.5
2024-05-13T04:39:00+09:00,1.9,�k,5.3,���k��,15.4,98.2,0,3,15.5,24.5
2024-05-13T04:40:00+09:00,2.1,�k,5.3,���k��,15.4,98.2,0,3,15.5,24.5
2024-05-13T04:41:00+09:00,2.1,�k,5.3,���k��,15.4,98.2,0,3,15.5,24.5
2024-05-13T04:42:00+09:00,2,�k,5.3,���k��,15.5,98.4,0,3,15.5,24.5
2024-05-13T04:43:00+09:00,2,�k,5.3,���k��,15.5,98.6,0,3,15.5,24.5
2024-05-13T04:44:00+09:00,1.9,�k�k��,5.3,���k��,15.5,98.6,0,3,15.5,24.5
2024-05-13T04:45:00+09:00,1.8,�k,5.3,���k��,15.5,99.3,0.5,3.5,16,25
2024-05-13T04:46:00+09:00,1.9,�k,5.3,���k��,15.5,99.1,0.5,3.5,16,25
2024-05-13T04:47:00+09:00,1.9,�k,5.3,�k��,15.5,99.1,0.5,3.5,16,25
2024-05-13T04:48:00+09:00,2.1,�k,5.8,�k�k��,15.4,99,0.5,3,16,25
2024-05-13T04:49:00+09:00,2.2,�k�k��,5.8,�k�k��,15.3,98.4,0.5,3,16,25
2024-05-13T04:50:00+09:00,2,�k�k��,5.8,�k�k��,15.3,98.3,0.5,3,16,25
2024-05-13T04:51:00+09:00,2,�k�k��,5.8,�k�k��,15.2,98.4,0.5,3,16,25
2024-05-13T04:52:00+09:00,2.2,�k�k��,5.8,�k�k��,15.2,99.1,0.5,3,16,25
2024-05-13T04:53:00+09:00,2.3,�k�k��,5.8,�k�k��,15.1,98.9,0.5,3,16,25
2024-05-13T04:54:00+09:00,2.5,�k�k��,7,�k��,15.1,98.6,0.5,3,16,25
2024-05-13T04:55:00+09:00,2.8,�k�k��,7,�k��,15.1,98.4,0,3,16,25
2024-05-13T04:56:00+09:00,2.8,�k�k��,7,�k��,15,98.3,0,3,16,25
2024-05-13T04:57:00+09:00,3,�k�k��,7,�k��,15,98.4,0,3,16,25
2024-05-13T04:58:00+09:00,3,�k�k��,7,�k��,14.9,98.5,0,2.5,16,25
2024-05-13T04:59:00+09:00,2.9,�k�k��,7,�k��,14.9,98.7,0,2.5,16,25
2024-05-13T05:00:00+09:00,2.9,�k�k��,7,�k��,14.9,98.7,0,2.5,16,25
2024-05-13T05:01:00+09:00,3.1,�k�k��,7,�k��,14.9,98.6,0,2.5,16,25
2024-05-13T05:02:00+09:00,3,�k�k��,7,�k��,14.9,98.5,0,2.5,16,25
2024-05-13T05:03:00+09:00,3,�k�k��,7,�k��,14.8,98.6,0,2,16,25
2024-05-13T05:04:00+09:00,3,�k�k��,6.8,�k��,14.8,98.7,0,2,16,25
2024-05-13T05:05:00+09:00,2.8,�k�k��,5.4,�k�k��,14.7,98.9,0,2,16,25
2024-05-13T05:06:00+09:00,2.9,�k�k��,5.4,�k�k��,14.7,99,0,2,16,25
2024-05-13T05:07:00+09:00,2.8,�k�k��,5.1,�k�k��,14.6,99.1,0,1.5,16,25
2024-05-13T05:08:00+09:00,2.7,�k�k��,4.6,�k��,14.6,99.1,0,1.5,16,25
2024-05-13T05:09:00+09:00,2.8,�k�k��,4.6,�k��,14.6,98.9,0,1.5,16,25
2024-05-13T05:10:00+09:00,3,�k�k��,5.4,�k�k��,14.5,98.8,0,1.5,16,25
2024-05-13T05:11:00+09:00,3,�k�k��,5.4,�k�k��,14.5,98.8,0.5,2,16.5,25.5
2024-05-13T05:12:00+09:00,2.9,�k�k��,5.4,�k�k��,14.5,99,0.5,1.5,16.5,25.5
2024-05-13T05:13:00+09:00,2.8,�k�k��,5.4,�k�k��,14.5,99.1,0.5,1.5,16.5,25.5
2024-05-13T05:14:00+09:00,2.7,�k�k��,5.4,�k�k��,14.4,99.4,0.5,1.5,16.5,25.5
2024-05-13T05:15:00+09:00,2.6,�k�k��,5.4,�k�k��,14.4,99.7,0.5,1.5,16.5,25.5
2024-05-13T05:16:00+09:00,2.5,�k�k��,5.4,�k�k��,14.4,99.5,0.5,1.5,16.5,25.5
2024-05-13T05:17:00+09:00,2.3,�k�k��,5.4,�k�k��,14.3,99.5,0.5,1.5,16.5,25.5
2024-05-13T05:18:00+09:00,2.3,�k�k��,5.4,�k�k��,14.3,99.6,0.5,1.5,16.5,25.5
2024-05-13T05:19:00+09:00,2.2,�k�k��,5.4,�k�k��,14.3,99.4,0.5,1,16.5,25.5
2024-05-13T05:20:00+09:00,2.1,�k�k��,5,�k��,14.4,99.6,0.5,1,16.5,25.5
2024-05-13T05:21:00+09:00,2.1,�k�k��,4.7,�k��,14.3,99.6,0,1,16.5,25.5
2024-05-13T05:22:00+09:00,2.3,�k�k��,6.4,�k�k��,14.3,99.5,0,1,16.5,25.5
2024-05-13T05:23:00+09:00,2.6,�k�k��,6.4,�k�k��,14.3,99.1,0,1,16.5,25.5
2024-05-13T05:24:00+09:00,2.7,�k�k��,6.4,�k�k��,14.3,99.2,0,1,16.5,25.5
2024-05-13T05:25:00+09:00,2.7,�k�k��,6.4,�k�k��,14.3,99.3,0,1,16.5,25.5
2024-05-13T05:26:00+09:00,2.8,�k�k��,6.4,�k�k��,14.2,99.1,0,1,16.5,25.5
2024-05-13T05:27:00+09:00,2.9,�k�k��,6.4,�k�k��,14.2,98.8,0,1,16.5,25.5
2024-05-13T05:28:00+09:00,3,�k�k��,6.4,�k�k��,14.2,99,0,1,16.5,25.5
2024-05-13T05:29:00+09:00,3.1,�k�k��,6.4,�k�k��,14.2,99.2,0,1,16.5,25.5
2024-05-13T05:30:00+09:00,3.2,�k�k��,6.4,�k�k��,14.2,98.8,0,1,16.5,25.5
2024-05-13T05:31:00+09:00,3,�k�k��,6.4,�k�k��,14.1,98.8,0,1,16.5,25.5
2024-05-13T05:32:00+09:00,2.9,�k�k��,6.3,�k��,14.1,99.1,0,1,16.5,25.5
2024-05-13T05:33:00+09:00,2.7,�k�k��,5.4,�k��,14.2,99.4,0,1,16.5,25.5
2024-05-13T05:34:00+09:00,2.8,�k�k��,5.4,�k��,14.1,99.3,0,1,16.5,25.5
2024-05-13T05:35:00+09:00,3,�k�k��,5.4,�k��,14.1,99,0,1,16.5,25.5
2024-05-13T05:36:00+09:00,3,�k�k��,5.6,�k�k��,14.1,98.6,0.5,1.5,17,26
2024-05-13T05:37:00+09:00,3,�k�k��,5.6,�k�k��,14.1,98.5,0.5,1.5,17,26
2024-05-13T05:38:00+09:00,3,�k�k��,5.6,�k�k��,14.1,98.9,0.5,1.5,17,26
2024-05-13T05:39:00+09:00,3.1,�k�k��,5.6,�k�k��,14.1,99.1,0.5,1.5,17,26
2024-05-13T05:40:00+09:00,3.1,�k�k��,5.6,�k�k��,14.1,98.8,0.5,1.5,17,26
2024-05-13T05:41:00+09:00,3.3,�k�k��,5.7,�k,14.1,98.5,0.5,1.5,17,26
2024-05-13T05:42:00+09:00,3.3,�k�k��,5.7,�k,14.1,97.9,0.5,1.5,17,26
2024-05-13T05:43:00+09:00,3.3,�k�k��,5.7,�k,14.1,98.3,0.5,1.5,17,26
2024-05-13T05:44:00+09:00,3.2,�k�k��,5.7,�k,14,98.6,0.5,1.5,17,26
2024-05-13T05:45:00+09:00,3.1,�k�k��,5.7,�k,14,98.7,0.5,1,17,26
2024-05-13T05:46:00+09:00,3,�k�k��,5.7,�k,14,98.6,0,1,17,26
2024-05-13T05:47:00+09:00,3,�k�k��,5.7,�k,14,98.8,0,1,17,26
2024-05-13T05:48:00+09:00,2.8,�k�k��,5.7,�k,14,98.6,0,1,17,26